Location: Igri�s
(42.2144°N, 0.4320°W)
Time: 12:45:34
(UTC+00:00)

IRS-1A Rocket - Pass Details

Date: 13 August 2020
Orbit: 852 x 930 km, 99.2° (Epoch: 25 September)

Event Time Altitude Azimuth Distance (km) Brightness Sun altitude
Rises 19:44:51 0° 166° (SSE) 3,460 7.0 -7.6°
Reaches altitude 10° 19:47:12 10° 167° (SSE) 2,536 6.3 -8.0°
Maximum altitude 19:52:52 84° 256° (WSW) 908 4.4 -8.9°
Drops below altitude 10° 19:58:42 10° 344° (NNW) 2,606 7.4 -9.9°
Sets 20:01:09 0° 346° (NNW) 3,561 8.2 -10.3°
